Home > Weather > Jessore > Past weeks

Flag for Bangladesh Past Weather in Jessore, Bangladesh — Yesterday and Last 2 Weeks

Now
79 °F

Warm.


Feels Like: 83 °F
Forecast: 80 / 93 °F
Wind: No wind

Location: Phrae

Current Time: Aug 25, 2016 at 1:56:23 AM

Latest Report: Aug 25, 2016 at 1:00 AM


Visibility: N/A

Pressure: 29.68 "Hg

Humidity: 100%

Dew Point: 79 °F

Location of JessoreLocation

Past Weather in Jessore — Graph

°F

Jessore Temperature Yesterday

Maximum temperature yesterday: 91 °F (at 2:00 PM)
Minimum temperature yesterday: 77 °F (at 2:00 AM)
Average temperature yesterday: 82 °F

High & Low Weather Summary for the Past Weeks

 TemperatureHumidityPressure
High93 °F (Aug 10, 2:00 PM)100% (Aug 10, 3:00 AM)29.77 "Hg (Aug 10, 3:00 AM)
Low73 °F (Aug 21, 4:00 AM)49% (Aug 10, 12:00 PM)29.47 "Hg (Aug 19, 3:00 PM)
Average81 °F83%29.63 "Hg
* Reported Aug 10 12:00 AM — Aug 25 12:00 AM, Jessore, Weather by CustomWeather, © 2016

Note: Actual official high and low records may vary slightly from our data, if they occured in-between our weather recording intervals... More about our weather records

Advertising

Jessore Weather History for the Previous 24 Hours

Scroll right to see more
 ConditionsComfort  
Time TempWeatherWind HumidityBarometerVisibility
12:00 AM
Thu, Aug 25
79 °FWarm.No wind100%29.65 "HgN/A
11:00 PM
Wed, Aug 24
79 °FWarm.2 mph100%29.65 "HgN/A
10:00 PM81 °FWarm.1 mph94%29.68 "HgN/A
9:00 PM81 °FWarm.No wind89%29.68 "HgN/A
8:00 PM81 °FWarm.1 mph89%29.65 "HgN/A
7:00 PM82 °FWarm.5 mph79%29.62 "Hg5 mi
6:00 PM82 °FWarm.3 mph84%29.59 "HgN/A
5:00 PM86 °FWarm.5 mph70%29.56 "Hg1 mi
4:00 PM91 °FHot.3 mph59%29.56 "Hg1 mi
3:00 PM91 °FHot.5 mph56%29.56 "Hg1 mi
2:00 PM91 °FPassing clouds.2 mph56%29.59 "HgN/A
12:00 PM90 °FPassing clouds.3 mph67%29.65 "HgN/A
11:00 AM84 °FWarm.1 mph79%29.68 "Hg3 mi
10:00 AM82 °FWarm.1 mph89%29.68 "Hg3 mi
9:00 AM82 °FThunderstorms. Partly sunny.No wind79%29.71 "Hg5 mi
8:00 AM82 °FMostly cloudy.No wind79%29.71 "HgN/A
7:00 AM79 °FMostly cloudy.No wind84%29.68 "HgN/A
6:00 AM79 °FWarm.No wind100%29.65 "HgN/A
5:00 AM77 °FWarm.No wind100%29.65 "HgN/A
4:00 AM77 °FWarm.No wind100%29.65 "HgN/A
3:00 AM77 °FWarm.No wind100%29.65 "HgN/A
2:00 AM77 °FWarm.No wind100%29.65 "HgN/A
1:00 AM79 °FWarm.No wind89%29.65 "HgN/A
Weather by CustomWeather, © 2016

See weather overviewHow to use our weather pages